Wind_Speed
27 28 30 32 31 31 30 27 26 29 32 32 31 23 15 9 7 10 13 12 12 8 23 18 12 12 11 9 3 8 7 3 3 6 3 3 3 1 1 1 1 2 1 0 2 1 2 21 7 7 5 12 16 20
26 28 29 31 32 31 31 27 26 31 32 32 30 22 14 10 7 10 13 8 9 14 24 32 30 25 25 18 15 4 3 3 3 1 2 4 2 4 3 1 3 2 2 1 4 2 9 15 5 5 11 17 19 22
26 27 28 30 32 32 31 29 24 32 33 30 27 19 14 12 9 9 11 11 11 12 22 9 4 8 10 14 10 7 4 2 1 2 2 2 2 1 2 1 2 1 2 1 4 5 12 23 7 13 19 24 27 29
28 27 28 29 31 32 32 30 25 31 32 29 24 17 15 12 11 11 9 7 6 8 5 9 16 22 10 10 10 16 20 8 5 10 2 1 3 1 2 1 1 1 3 3 2 6 16 8 15 24 29 27 30 29
29 28 29 29 31 32 33 33 27 29 31 29 22 15 14 13 11 13 12 7 6 5 5 14 21 14 14 11 16 9 16 23 12 2 2 2 1 3 2 1 1 4 4 1 1 2 7 17 22 31 28 28 31 30
30 29 29 30 31 33 34 35 31 29 31 29 24 14 13 13 13 14 5 3 9 7 6 4 9 10 15 18 20 10 12 9 6 3 4 3 3 4 0 1 8 20 9 5 3 6 13 32 27 21 24 32 29 28
30 31 29 30 32 33 35 36 31 29 31 27 24 17 13 10 11 7 5 14 15 8 5 5 6 6 17 14 9 6 3 2 4 3 2 2 4 1 1 2 13 19 21 16 8 11 11 19 19 30 32 29 26 26
31 32 31 29 33 34 34 35 29 32 32 27 22 15 8 7 9 2 4 11 9 6 4 2 4 7 8 7 4 8 3 1 2 2 2 1 4 3 1 5 13 16 20 17 11 12 17 25 30 26 30 25 27 27
30 29 28 29 31 34 33 33 29 34 32 25 19 10 5 2 3 3 15 4 1 4 2 2 3 3 7 5 5 6 5 2 5 1 2 5 3 2 5 12 17 16 13 18 21 21 19 18 23 26 27 26 27 28
30 28 26 28 30 34 32 32 28 34 31 20 10 4 3 2 12 7 0 1 3 2 3 4 4 3 3 4 3 5 5 2 2 2 8 1 1 3 7 14 12 11 10 10 16 16 21 23 23 26 27 27 26 26
30 27 27 27 29 32 32 28 28 34 30 20 9 4 10 10 3 2 2 1 1 3 5 6 5 3 2 1 1 3 1 2 2 1 2 1 1 4 13 14 15 11 11 12 16 20 22 21 25 27 26 27 26 23
29 29 28 25 27 30 31 24 29 30 27 24 17 18 8 3 2 1 1 3 1 3 3 3 6 3 3 2 1 1 1 2 1 5 1 2 3 15 19 17 18 17 13 14 16 20 24 23 25 26 27 27 27 26
29 29 26 24 25 29 25 26 27 28 26 16 4 4 3 2 4 3 1 3 2 3 4 6 5 3 1 3 2 3 3 1 5 3 1 3 13 24 24 22 21 19 20 22 21 20 23 27 26 26 28 28 27 27
29 30 30 25 24 23 27 27 28 26 12 3 3 6 3 3 4 4 4 4 5 8 16 16 3 2 2 3 1 2 2 2 3 4 3 3 18 25 22 24 23 19 19 23 26 25 21 24 28 27 25 26 26 29
28 28 28 23 20 21 26 27 25 20 5 4 3 4 5 9 6 6 8 8 10 13 9 4 1 1 2 3 1 2 4 2 3 4 3 16 24 15 16 20 21 20 21 19 21 27 27 26 29 27 25 23 24 27
27 27 23 18 21 25 28 28 21 5 4 6 8 3 6 2 6 6 8 12 12 5 3 1 1 2 1 2 3 3 2 4 4 4 18 18 16 11 9 12 14 17 19 23 23 27 31 29 26 24 19 19 22 22
23 25 20 24 25 23 28 25 7 7 6 6 8 15 14 8 11 12 12 14 10 4 2 2 1 5 2 2 1 4 4 4 14 17 17 15 14 14 10 10 17 23 24 24 25 23 28 32 31 28 24 21 19 20
23 22 21 22 25 23 23 6 5 6 8 13 6 15 16 16 18 21 19 17 10 4 5 4 5 2 4 3 4 4 14 14 15 17 17 14 13 14 9 12 16 17 20 20 25 26 28 30 27 31 32 29 23 22
24 23 19 14 12 12 5 4 6 5 11 12 17 20 18 16 19 21 22 23 19 12 4 5 3 3 4 7 8 10 11 13 15 15 17 13 12 13 13 14 14 15 19 22 24 27 25 26 24 26 34 28 30 25
21 21 16 8 8 3 5 7 5 7 6 5 11 12 11 13 18 19 19 20 17 6 5 4 5 9 13 18 13 12 10 10 12 13 14 9 10 13 14 14 16 18 19 21 23 25 27 23 24 29 33 28 30 29
19 16 11 11 5 10 7 6 7 8 9 7 9 8 8 11 15 18 19 15 11 6 3 13 18 22 23 17 15 13 13 13 11 10 12 10 10 15 15 13 15 17 18 20 25 28 29 27 26 27 32 32 31 25
20 18 13 13 8 7 10 12 10 6 7 9 11 11 7 6 10 20 18 11 8 19 20 19 22 21 24 21 18 15 13 13 13 13 10 9 11 12 11 13 17 19 20 20 22 25 27 29 29 28 29 37 42 33
18 17 9 9 9 8 8 11 7 6 3 4 3 3 4 4 5 4 4 6 8 14 17 18 15 12 15 15 16 14 12 14 12 8 9 8 8 11 10 11 13 18 21 19 19 22 25 27 29 30 25 29 36 44
17 6 6 7 13 5 5 5 7 5 5 2 1 4 3 5 4 4 4 9 22 22 19 16 20 19 17 16 17 14 10 9 10 9 5 6 8 9 10 11 12 14 15 16 17 18 20 24 26 24 23 19 23 33
5 8 7 7 8 5 4 3 3 1 5 5 2 4 4 3 1 3 4 9 19 21 19 16 16 15 17 19 15 11 8 6 6 5 3 4 6 8 9 9 10 11 14 15 17 18 17 21 22 18 17 17 16 20
8 9 11 9 4 5 4 3 5 5 3 3 5 4 2 1 1 5 3 4 7 11 4 7 12 17 19 15 15 16 10 7 5 5 5 6 6 7 9 13 13 9 9 11 14 16 17 17 18 16 13 14 12 14
6 7 8 10 6 4 4 5 3 2 3 5 3 1 1 3 5 4 6 11 14 11 11 8 7 12 14 13 13 13 10 8 6 6 5 6 8 9 11 12 13 11 8 8 10 13 16 17 15 15 12 10 12 12
11 5 6 8 9 10 3 2 3 5 4 5 3 4 4 5 4 2 5 15 15 11 5 6 5 7 11 11 10 10 11 11 7 5 4 4 7 8 9 10 10 9 6 6 9 13 15 16 13 11 10 9 9 9
9 10 14 4 7 7 11 8 5 10 8 10 5 3 4 5 3 7 14 19 17 13 9 9 8 11 11 9 8 13 13 9 7 8 8 8 9 8 9 9 7 5 7 10 10 14 16 15 12 8 7 6 7 7
8 17 9 8 6 7 15 17 12 15 15 19 19 14 14 19 21 19 22 19 22 17 13 12 13 12 9 14 16 17 15 13 12 10 8 6 5 4 4 4 4 7 8 12 14 15 14 14 11 7 5 5 4 4
8 18 9 12 11 25 25 23 20 20 23 21 21 21 23 15 17 13 9 6 7 12 11 13 13 12 12 11 15 14 12 11 9 8 6 5 6 7 8 8 8 9 11 10 9 11 12 12 11 9 5 3 2 1
13 15 8 5 5 16 18 16 16 16 19 17 17 16 11 8 6 5 8 13 11 7 10 12 11 11 11 10 10 8 5 4 6 8 8 7 6 5 5 5 5 5 6 7 7 6 8 10 11 9 6 3 3 7
18 17 16 8 3 4 10 9 5 4 7 8 10 13 13 11 3 4 5 4 2 4 6 7 7 8 8 5 6 7 10 12 10 8 8 7 6 5 5 5 5 4 4 4 4 6 9 9 7 6 5 2 6 8
Wind_Direction
341 345 348 349 349 350 349 348 345 347 344 344 343 342 340 337 329 292 295 293 256 271 286 271 275 255 279 276 290 316 340 355 350 17 339 329 293 84 319 55 9 130 278 4 182 242 127 355 7 61 275 300 314 327
338 341 344 346 348 349 347 345 343 347 345 345 344 341 344 338 319 290 294 293 267 261 270 296 290 280 271 273 263 278 268 253 238 317 341 296 14 353 332 185 12 77 41 335 12 12 326 336 335 357 339 309 328 329
336 338 340 343 345 347 347 344 340 346 347 347 346 341 348 342 326 280 287 287 289 283 301 287 294 325 298 287 266 221 243 238 200 323 306 291 289 239 7 21 299 168 229 199 332 333 316 307 302 350 342 338 340 349
332 335 336 340 342 345 346 343 338 345 347 345 347 341 344 343 332 324 289 298 279 299 298 292 316 326 323 316 286 253 248 264 294 319 300 302 289 108 237 321 315 214 194 202 252 307 326 72 330 333 330 341 341 349
329 331 333 336 340 341 343 343 335 340 345 342 340 338 334 333 332 325 305 297 285 279 286 293 326 18 7 355 342 310 282 254 264 271 246 250 277 326 272 158 248 199 204 215 133 206 278 287 319 323 328 330 342 341
330 329 330 332 335 340 340 340 337 335 341 338 331 318 314 317 323 337 324 303 329 256 291 305 341 308 332 326 323 306 321 267 220 200 261 277 217 189 278 280 23 11 354 255 239 304 282 297 305 325 326 324 335 335
325 329 327 330 333 335 339 338 336 334 339 335 328 315 299 292 304 321 307 304 314 286 301 300 302 287 329 322 330 3 323 290 233 212 232 261 278 228 328 347 336 339 340 345 341 305 313 301 311 315 317 324 326 329
315 321 327 326 329 330 334 338 334 336 338 333 325 318 306 274 287 286 267 312 308 263 279 283 278 315 333 309 357 352 332 109 174 319 295 271 337 20 37 330 333 325 318 317 322 315 286 292 305 311 315 324 327 331
309 314 323 328 330 330 329 334 329 336 339 332 326 312 295 249 308 279 312 321 251 253 276 285 291 298 323 300 15 354 347 13 5 8 21 355 354 40 318 333 328 324 306 300 310 310 307 304 303 300 303 315 323 327
308 310 318 327 330 331 329 328 324 334 340 338 330 308 260 295 315 310 308 211 207 235 237 250 242 265 289 300 35 5 9 12 5 17 331 33 176 328 287 291 289 304 310 306 301 304 318 317 312 314 306 306 310 315
304 307 317 321 327 327 328 328 328 335 345 350 330 283 306 313 275 234 208 74 326 277 222 251 264 283 323 334 349 32 6 335 339 327 337 353 352 276 310 310 330 335 322 306 304 307 315 314 302 293 300 299 299 301
298 303 310 317 323 322 323 326 330 335 338 322 301 293 301 285 258 98 291 316 213 243 266 238 314 282 317 341 127 5 74 353 341 324 318 47 279 323 322 335 348 352 333 318 308 304 310 306 306 303 293 288 288 287
293 300 305 314 317 323 317 320 327 329 330 321 287 278 268 257 29 160 220 299 301 260 268 318 324 320 324 11 45 56 48 273 333 38 8 237 300 333 342 349 352 7 1 344 330 326 316 312 307 301 302 287 280 280
294 294 299 305 316 316 321 320 325 322 327 283 261 297 176 250 240 189 191 208 259 251 291 312 276 15 10 53 12 359 262 48 44 30 270 267 326 337 350 357 357 357 3 4 356 343 326 323 316 309 301 292 281 274
294 299 303 307 304 313 321 321 323 313 232 242 218 245 229 238 239 227 249 270 284 298 291 294 241 329 13 80 38 51 17 346 188 217 238 300 329 342 1 12 6 2 4 359 0 358 350 339 334 322 306 291 279 272
299 304 308 313 308 311 318 320 324 267 233 231 230 251 237 281 265 244 240 271 316 286 284 224 94 46 329 136 63 197 115 225 253 228 274 304 334 341 342 356 359 359 351 359 1 4 360 349 344 343 328 305 279 266
296 297 309 310 309 316 315 312 281 222 233 227 244 229 235 256 248 250 270 285 303 279 233 120 58 221 105 45 284 188 204 221 250 283 302 313 320 332 317 340 350 349 345 351 355 358 359 2 3 355 357 346 321 284
286 300 306 313 315 328 322 265 232 240 244 239 231 245 234 241 251 257 262 278 280 238 187 215 142 126 198 192 261 234 232 262 275 291 305 315 318 326 316 337 349 359 5 1 4 357 351 356 353 356 351 358 340 313
291 294 302 318 318 338 299 260 237 261 247 255 259 259 254 263 264 264 262 269 274 258 238 183 159 198 227 216 231 252 265 266 281 298 306 309 330 350 342 336 345 354 0 1 1 0 358 1 359 358 355 355 349 336
287 288 299 280 275 296 273 266 244 262 264 255 260 264 256 255 270 271 268 260 258 213 189 199 212 232 236 256 254 264 275 282 280 296 307 315 320 325 333 344 350 356 356 360 1 4 7 9 11 8 7 357 353 353
291 293 288 274 244 217 253 269 249 250 273 260 275 272 261 257 263 264 263 255 207 214 228 229 244 265 270 261 258 252 260 272 263 288 295 299 315 315 317 333 343 350 357 2 359 1 5 7 1 356 5 15 0 351
277 284 279 273 226 218 249 237 234 289 276 267 285 268 241 240 246 252 260 211 227 247 248 255 262 271 268 263 245 245 259 266 264 285 282 284 307 313 312 331 338 348 356 359 359 356 356 359 360 1 2 5 17 16
277 284 262 215 216 228 252 226 224 217 233 265 290 270 257 250 245 256 234 231 238 247 247 247 256 271 292 266 232 235 245 254 258 278 260 287 309 316 303 322 335 340 344 352 358 358 351 352 355 1 2 5 17 24
262 231 225 220 205 252 246 232 215 239 235 259 231 264 255 234 270 246 246 251 270 265 252 264 278 277 262 226 217 226 243 245 250 248 238 271 291 320 322 329 329 334 337 344 350 358 354 350 357 1 8 15 22 33
209 224 208 225 216 222 226 241 225 168 240 205 212 267 271 262 246 260 240 265 265 264 266 270 262 268 233 216 210 213 205 207 232 224 261 294 309 317 317 318 325 327 337 346 354 358 360 351 358 9 9 22 37 45
215 216 194 200 214 205 217 230 213 217 196 214 231 249 259 110 289 256 249 293 323 319 272 270 270 226 213 218 209 196 201 229 229 275 306 321 326 323 321 320 317 319 332 352 355 356 2 3 1 9 11 24 41 54
223 239 218 217 221 230 265 253 257 244 220 218 240 285 144 212 245 254 295 346 316 301 293 277 245 218 216 196 205 206 220 224 232 272 269 288 304 311 314 315 310 316 335 353 357 4 6 4 4 7 13 27 34 44
219 214 199 205 208 216 238 208 216 213 228 222 177 197 210 208 232 304 353 357 349 336 260 200 195 202 214 211 219 229 222 217 226 230 246 276 297 297 304 319 319 321 341 14 12 2 2 360 1 10 18 34 58 55
207 204 199 214 212 223 212 203 216 221 213 180 185 222 242 240 236 297 281 285 322 321 289 232 211 206 205 214 240 224 216 223 233 237 249 258 254 263 294 316 325 329 7 16 2 3 2 4 8 15 24 40 65 83
232 200 194 205 203 221 227 220 237 250 244 235 243 252 260 267 277 286 296 275 254 294 286 255 269 260 250 246 228 213 220 222 234 243 255 256 258 272 308 320 309 317 327 339 340 345 357 359 2 16 33 41 47 61
197 190 217 229 240 247 249 255 258 262 260 257 256 256 263 272 276 287 272 270 246 274 251 227 224 245 238 231 225 230 226 227 229 239 244 248 265 269 271 274 284 298 311 325 339 340 345 354 357 1 9 41 62 17
198 194 199 216 251 256 241 240 244 243 247 244 250 249 233 213 226 229 245 253 261 263 245 240 248 230 228 225 216 212 221 245 252 246 257 265 270 279 281 277 266 285 300 308 314 330 343 346 350 355 2 18 99 116
218 219 218 238 260 238 238 216 219 254 204 204 225 222 206 192 141 46 14 7 278 228 191 172 167 158 163 194 236 263 269 259 237 246 261 264 262 264 266 270 269 258 272 278 311 345 346 341 347 359 10 28 122 121
Height
1552 1547 1542 1536 1530 1524 1518 1512 1507 1501 1494 1488 1482 1477 1474 1471 1471 1470 1467 1465 1465 1460 1449 1446 1444 1442 1441 1439 1436 1430 1428 1425 1423 1423 1416 1410 1404 1403 1401 1400 1401 1403 1406 1396 1396 1394 1390 1393 1385 1394 1406 1399 1394 1388
1549 1545 1540 1534 1528 1522 1516 1510 1505 1499 1492 1485 1480 1475 1471 1468 1467 1466 1464 1463 1461 1458 1445 1440 1435 1433 1433 1433 1436 1433 1431 1428 1425 1425 1424 1418 1412 1413 1407 1403 1408 1406 1410 1408 1407 1404 1401 1401 1401 1401 1401 1397 1392 1385
1546 1541 1537 1532 1526 1519 1513 1508 1502 1497 1491 1483 1478 1473 1470 1467 1465 1463 1461 1460 1459 1453 1440 1433 1430 1431 1430 1429 1430 1432 1428 1427 1426 1426 1424 1420 1416 1414 1413 1412 1411 1410 1411 1411 1408 1405 1401 1398 1399 1400 1397 1394 1389 1384
1544 1539 1534 1529 1523 1517 1511 1505 1500 1494 1488 1482 1476 1472 1470 1466 1463 1461 1459 1457 1457 1454 1449 1434 1431 1428 1426 1426 1425 1425 1425 1426 1426 1425 1423 1421 1417 1415 1416 1414 1412 1411 1415 1411 1407 1404 1397 1394 1397 1397 1393 1391 1387 1383
1541 1535 1531 1526 1521 1514 1508 1502 1496 1491 1485 1480 1474 1471 1468 1466 1462 1459 1457 1456 1455 1458 1450 1436 1430 1429 1428 1425 1424 1422 1422 1422 1424 1425 1424 1422 1417 1416 1412 1413 1415 1416 1415 1409 1405 1405 1408 1400 1398 1396 1393 1389 1386 1381
1537 1532 1527 1522 1517 1511 1505 1498 1493 1488 1482 1476 1471 1467 1465 1464 1461 1458 1455 1456 1454 1452 1449 1441 1434 1430 1426 1424 1419 1420 1419 1420 1420 1420 1421 1417 1415 1418 1417 1414 1415 1414 1407 1403 1403 1403 1404 1399 1399 1395 1393 1389 1385 1381
1533 1529 1524 1519 1514 1508 1502 1495 1488 1484 1478 1472 1466 1463 1460 1460 1459 1459 1459 1456 1453 1452 1450 1444 1436 1428 1425 1422 1420 1419 1419 1420 1420 1419 1419 1417 1416 1415 1415 1415 1415 1406 1401 1403 1402 1403 1403 1398 1396 1393 1391 1387 1385 1380
1528 1525 1520 1515 1510 1504 1498 1491 1485 1480 1474 1468 1462 1458 1456 1456 1456 1456 1455 1453 1451 1451 1451 1448 1438 1430 1426 1423 1419 1420 1418 1418 1419 1418 1418 1418 1415 1414 1418 1413 1409 1408 1407 1404 1399 1400 1399 1397 1391 1390 1388 1385 1381 1376
1522 1519 1515 1511 1506 1501 1494 1488 1481 1476 1470 1464 1459 1455 1455 1454 1453 1453 1451 1450 1449 1453 1449 1448 1441 1434 1428 1425 1422 1421 1420 1420 1421 1421 1420 1419 1420 1420 1416 1415 1408 1408 1408 1403 1399 1397 1396 1394 1390 1389 1385 1382 1379 1374
1516 1513 1510 1506 1502 1497 1491 1485 1478 1473 1467 1461 1457 1455 1453 1453 1451 1450 1449 1449 1448 1449 1447 1443 1438 1434 1432 1426 1425 1425 1424 1425 1423 1424 1422 1420 1421 1421 1419 1415 1413 1412 1405 1403 1400 1397 1392 1389 1385 1383 1383 1380 1377 1374
1510 1507 1504 1502 1498 1493 1488 1482 1477 1470 1466 1461 1458 1454 1453 1450 1449 1447 1447 1447 1447 1446 1443 1438 1435 1433 1430 1429 1428 1429 1429 1427 1426 1426 1421 1420 1419 1420 1413 1410 1406 1403 1401 1401 1396 1392 1391 1389 1388 1386 1378 1375 1373 1371
1504 1501 1498 1496 1493 1489 1484 1480 1475 1471 1468 1464 1460 1454 1450 1449 1447 1446 1449 1447 1446 1444 1437 1435 1433 1431 1429 1429 1429 1429 1429 1430 1426 1425 1423 1419 1421 1414 1412 1411 1408 1404 1402 1399 1396 1389 1386 1386 1384 1378 1372 1370 1368 1365
1497 1494 1492 1491 1488 1485 1480 1477 1473 1469 1464 1459 1457 1454 1451 1448 1452 1445 1448 1448 1447 1438 1434 1432 1432 1429 1429 1429 1429 1431 1429 1429 1427 1432 1427 1423 1416 1413 1410 1407 1405 1405 1401 1396 1389 1383 1378 1373 1375 1374 1365 1364 1363 1359
1490 1487 1485 1485 1482 1479 1476 1472 1469 1465 1462 1459 1457 1456 1450 1446 1444 1442 1441 1439 1435 1433 1431 1430 1429 1429 1428 1430 1430 1431 1432 1433 1444 1446 1435 1419 1413 1410 1406 1403 1398 1396 1392 1385 1384 1381 1379 1374 1367 1363 1360 1355 1353 1352
1483 1481 1479 1479 1476 1474 1471 1467 1464 1460 1459 1457 1455 1455 1444 1435 1433 1433 1434 1434 1431 1429 1428 1427 1428 1428 1429 1431 1431 1435 1437 1447 1443 1438 1423 1412 1410 1406 1404 1401 1397 1393 1390 1388 1383 1378 1366 1363 1362 1354 1352 1348 1346 1347
1477 1475 1473 1472 1471 1468 1465 1461 1458 1456 1455 1452 1446 1440 1435 1435 1431 1431 1430 1429 1428 1426 1425 1426 1427 1428 1432 1432 1437 1441 1439 1449 1432 1419 1410 1409 1406 1403 1402 1400 1399 1397 1394 1389 1379 1372 1368 1364 1359 1352 1345 1338 1340 1339
1472 1471 1469 1466 1464 1462 1460 1456 1453 1451 1447 1441 1432 1428 1429 1428 1427 1426 1426 1425 1425 1426 1426 1425 1427 1427 1429 1434 1437 1429 1431 1420 1411 1409 1408 1407 1403 1400 1398 1396 1393 1390 1385 1383 1381 1376 1370 1363 1356 1349 1342 1339 1336 1333
1466 1466 1465 1462 1457 1456 1453 1449 1447 1443 1437 1429 1427 1421 1422 1422 1422 1422 1422 1422 1422 1421 1421 1422 1421 1427 1431 1433 1431 1415 1409 1407 1406 1405 1403 1402 1401 1398 1395 1394 1392 1390 1387 1383 1378 1372 1366 1361 1355 1348 1339 1332 1331 1329
1460 1460 1460 1458 1455 1455 1453 1447 1443 1436 1426 1423 1419 1418 1418 1416 1415 1416 1417 1417 1417 1417 1418 1416 1418 1421 1419 1412 1407 1404 1403 1402 1401 1401 1400 1399 1398 1396 1395 1393 1391 1389 1386 1382 1378 1372 1367 1362 1356 1349 1338 1327 1325 1319
1454 1454 1455 1453 1453 1455 1450 1443 1440 1433 1423 1417 1415 1413 1412 1410 1409 1408 1409 1409 1410 1411 1411 1411 1408 1404 1403 1403 1402 1401 1401 1400 1398 1397 1396 1396 1395 1393 1392 1390 1389 1386 1384 1382 1378 1373 1367 1362 1356 1349 1341 1335 1328 1319
1450 1449 1450 1449 1448 1451 1447 1439 1433 1426 1420 1415 1410 1409 1407 1404 1402 1401 1401 1402 1403 1402 1400 1398 1398 1398 1397 1397 1397 1397 1397 1396 1396 1396 1395 1393 1393 1391 1390 1388 1386 1384 1382 1378 1373 1367 1362 1358 1354 1349 1344 1336 1326 1314
1445 1445 1445 1444 1443 1443 1437 1430 1426 1422 1419 1410 1408 1406 1403 1400 1396 1394 1394 1395 1393 1391 1391 1391 1391 1391 1391 1392 1392 1393 1393 1393 1393 1393 1393 1392 1391 1389 1387 1386 1383 1381 1379 1375 1372 1367 1362 1358 1352 1345 1338 1329 1320 1310
1441 1441 1439 1438 1438 1433 1425 1422 1422 1417 1415 1407 1404 1401 1398 1394 1390 1389 1388 1385 1382 1382 1383 1384 1385 1385 1386 1387 1388 1389 1390 1390 1390 1390 1390 1390 1389 1387 1386 1385 1383 1380 1377 1374 1371 1367 1361 1356 1350 1344 1338 1331 1323 1310
1435 1436 1433 1429 1427 1422 1419 1414 1412 1410 1406 1405 1404 1398 1395 1391 1388 1387 1384 1377 1377 1378 1378 1379 1380 1379 1380 1382 1384 1385 1386 1387 1387 1388 1388 1388 1387 1387 1385 1384 1382 1380 1377 1374 1371 1368 1364 1358 1353 1348 1344 1339 1333 1326
1432 1426 1424 1418 1417 1416 1413 1408 1405 1405 1401 1399 1400 1397 1391 1389 1389 1386 1378 1371 1371 1371 1372 1374 1374 1374 1375 1377 1381 1383 1384 1385 1385 1385 1386 1386 1386 1385 1384 1383 1381 1379 1377 1374 1370 1368 1366 1362 1357 1354 1350 1346 1341 1338
1420 1412 1410 1407 1407 1407 1402 1400 1398 1397 1396 1395 1394 1389 1388 1389 1388 1381 1374 1369 1368 1367 1367 1368 1368 1369 1372 1375 1378 1380 1382 1383 1384 1385 1385 1385 1384 1383 1382 1381 1379 1378 1376 1374 1371 1368 1366 1363 1359 1357 1354 1352 1348 1344
1407 1403 1400 1400 1400 1400 1397 1395 1395 1395 1392 1391 1389 1388 1389 1388 1383 1375 1370 1369 1367 1366 1366 1366 1365 1367 1370 1373 1376 1378 1379 1381 1382 1383 1383 1383 1382 1381 1381 1380 1378 1377 1375 1374 1372 1370 1367 1364 1361 1358 1356 1354 1352 1348
1395 1395 1397 1394 1394 1393 1392 1393 1392 1389 1386 1384 1384 1384 1381 1379 1375 1372 1370 1369 1367 1365 1365 1366 1367 1368 1370 1373 1374 1376 1377 1378 1380 1381 1381 1381 1380 1379 1379 1378 1377 1376 1375 1374 1372 1371 1368 1365 1362 1360 1358 1357 1356 1354
1385 1385 1388 1387 1389 1387 1384 1383 1380 1375 1374 1376 1379 1378 1373 1371 1370 1370 1369 1368 1367 1367 1366 1366 1366 1367 1369 1370 1372 1373 1374 1376 1378 1378 1379 1379 1378 1378 1377 1377 1376 1376 1375 1375 1373 1371 1369 1366 1364 1362 1360 1359 1358 1357
1376 1378 1379 1378 1378 1375 1369 1371 1368 1369 1370 1371 1370 1370 1369 1367 1367 1367 1365 1364 1365 1364 1363 1365 1365 1366 1366 1368 1369 1370 1372 1373 1374 1376 1376 1376 1376 1377 1376 1375 1375 1375 1373 1373 1373 1371 1369 1367 1365 1365 1363 1361 1360 1359
1366 1369 1371 1369 1365 1362 1363 1365 1365 1365 1365 1364 1365 1365 1363 1364 1362 1362 1360 1360 1360 1361 1360 1361 1362 1362 1362 1363 1366 1369 1370 1371 1372 1373 1373 1373 1374 1374 1375 1375 1374 1374 1373 1372 1371 1370 1370 1369 1367 1366 1365 1364 1363 1362
1361 1360 1361 1360 1356 1355 1357 1358 1357 1356 1355 1357 1357 1357 1358 1359 1359 1359 1358 1357 1357 1358 1359 1359 1358 1359 1360 1361 1363 1365 1368 1369 1369 1371 1371 1371 1371 1371 1371 1372 1372 1372 1372 1371 1369 1369 1369 1369 1368 1366 1365 1364 1364 1365
1351 1352 1352 1353 1353 1351 1350 1352 1352 1349 1348 1348 1349 1350 1351 1353 1355 1359 1358 1357 1357 1356 1357 1357 1357 1358 1360 1362 1362 1363 1365 1365 1366 1368 1369 1369 1369 1369 1369 1369 1370 1370 1369 1368 1368 1368 1367 1366 1366 1366 1367 1366 1367 1368